Location: Unspecified
(0.0000°N, 0.0000°E)
Time: 22:13:02
(UTC+02:00)

H-2A R/B - Visible Passes

Search period start: 30 August 2014 00:00
Search period end: 09 September 2014 00:00
Orbit: 291 x 33596 km, 28.0° (Epoch: 23 August)

Date Brightness Start Highest point End Pass type
(mag) Time Alt. Az. Time Alt. Az. Time Alt. Az.
30 Aug 5.3 09:12:45 10° ENE 12:50:00 25° ENE 14:33:59 10° ENE visible
31 Aug 5.1 11:47:24 10° WSW 12:55:14 72° NW 20:59:53 16° E visible
01 Sep 5.3 07:16:07 10° SSW 13:56:39 42° NE 16:13:32 10° ENE visible
02 Sep 4.0 13:10:00 10° WSW 22:10:50 72° NNE 22:13:29 58° E visible
04 Sep 4.5 14:42:21 10° W 23:27:00 50° W 19:40:11 10° WNW visible
06 Sep 9.0 09:23:30 10° ENE 12:12:25 20° ENE 13:43:48 10° ENE visible
07 Sep 5.9 00:39:04 10° W 00:40:29 12° W 00:40:29 12° W visible
08 Sep 5.2 06:36:30 10° SSW 13:22:39 38° NE 15:30:15 10° ENE visible
